Location: Unspecified
(0.0000°N, 0.0000°E)
Time: 18:08:21
(UTC+00:00)

Vanguard 1 - Pass Details

Date: 03 October 2020
Orbit: 650 x 3833 km, 34.3° (Epoch: 26 October)

Event Time Altitude Azimuth Distance (km) Brightness Sun altitude
Rises 02:33:56 0° 333° (NNW) 3,088 - -48.6°
Reaches altitude 10° 02:36:25 10° 348° (NNW) 2,336 - -48.0°
Maximum altitude 02:40:47 24° 44° (NE) 1,898 - -46.9°
Exits shadow 02:42:50 21° 69° (ENE) 2,239 12.2 -46.4°
Drops below altitude 10° 02:47:01 10° 95° (E) 3,456 13.4 -45.4°
Sets 02:51:37 0° 107° (ESE) 5,005 14.4 -44.2°
